Tracking 31027 objects as of 19-Jul-2025
HD Live streaming from Space Station
objects crossing your sky now

COSMOS 2251 DEB

Track COSMOS 2251 DEB now!
10-day predictions


NORAD ID: 35825
Int'l Code: 1993-036ASX
Perigee: 743.7 km
Apogee: 1,268.5 km
Inclination: 74.1 °
Period: 105.1 minutes
Semi major axis: 7377 km
RCS: 0.0121 m2 (small)
Launch date: June 16, 1993
Source: Commonwealth of Independent States (former USSR) (CIS)
Launch site: PLESETSK MISSILE AND SPACE COMPLEX (PKMTR)

Note: This is SATELLITE DEBRIS
Your satellite tracking list
SL-8 DEB
Track 1 satellite(s)




NASA's NSSDC Master Catalog

Two Line Element Set (TLE):
1 35825U 93036ASX 25199.20388672  .00002142  00000-0  15704-2 0  9994
2 35825  74.1139  24.9953 0355713 155.0311 206.8497 13.70163790804872
Source of the keplerian elements: AFSPC